User: anonymous   Login
Location: Unspecified
(0.0000°N, 0.0000°E)
Time: 00:31:49
(UTC+00:00)
Language:

Tiros 1 despin weight - Orbit

View from above orbital plane
View from above orbital plane
View from above satellite
View from above satellite

Ground track
Ground track

The orbit data is extracted from the following two-line orbital elements,

1 00115U 60002D   14327.45691645  .00003804  00000-0  50555-3 0  5176
2 00115 048.1662 320.6869 0036577 296.8476 196.7007 14.81194498911246
Epoch (UTC): 23 November 2014 10:57:57
Eccentricity: 0.0036577
inclination: 48.1662°
perigee height: 600 km
apogee height: 651 km
right ascension of ascending node: 320.6869°
argument of perigee: 296.8476°
revolutions per day: 14.81194498
mean anomaly at epoch: 196.7007°
orbit number at epoch: 91124

The dashed part of the orbit path shows where the satellite is in the earth's shadow,  

DLR